Regional Weather Roundup
Issued by NWS

Home | Current Version | Previous Version | Text Only | Print | Product List | Glossary On
Versions: 1 2 3 4 5 6 7 8 9 10 11 12 13 14 15 16 17 18 19 20 21 22 23 24 25 26 27 28 29 30 31 32 33 34 35 36 37 38 39 40 41 42 43 44 45 46 47 48 49 50
000
ASUS45 KBOI 230010
RWRID
WEATHER ROUNDUP FOR IDAHO
NATIONAL WEATHER SERVICE BOISE ID
500 PM MST MON DEC 22 2014

NOTE: "FAIR" INDICATES FEW OR NO CLOUDS BELOW 12000 FEET
WITH NO SIGNIFICANT WEATHER AND/OR OBSTRUCTIONS TO VISIBILITY

IDZ012-014-230100-
SOUTHWEST IDAHO


CITY           SKY/WX    TMP DP  RH WIND       PRES   REMARKS
BOISE          PTCLDY    42  32  67 NW12      30.23R
CALDWELL       CLEAR     45  25  45 SW15      30.27R
MOUNTAIN HOME  CLEAR     42  29  59 NW16      30.23R
$$

IDZ016-017-230100-
SOUTHCENTRAL IDAHO


CITY           SKY/WX    TMP DP  RH WIND       PRES   REMARKS
BURLEY         CLEAR     38  29  70 W21G36    30.07R WCI  28
JEROME         CLEAR     38  30  73 W25G32    30.14R WCI  27
TWIN FALLS     CLEAR     39  28  64 W26G35    30.14R WCI  28
$$

IDZ019>023-230100-
SOUTHEAST IDAHO


CITY           SKY/WX    TMP DP  RH WIND       PRES   REMARKS
IDAHO FALLS    PTCLDY    35  25  66 NW13      30.04R WCI  26
POCATELLO      PTCLDY    37  24  59 N17G26    30.05R WCI  27
REXBURG        PTCLDY    32  21  64 NW6G20    30.03R WCI  26
$$

IDZ006-010-011-018-031-032-230100-
CENTRAL IDAHO MOUNTAINS


CITY           SKY/WX    TMP DP  RH WIND       PRES   REMARKS
MCCALL         CLEAR     31  25  78 NW6       30.18R WCI  25
STANLEY          N/A     28  10  46 NW10G16   30.13R WCI  19
SALMON         CLOUDY    36  21  55 E5        30.15R WCI  32
CHALLIS        CLEAR     32  15  49 N10       30.13R WCI  24
$$

IDZ002-004-006-007-026-230100-
NORTHERN IDAHO


CITY           SKY/WX    TMP DP  RH WIND       PRES   REMARKS
LEWISTON       CLEAR     45  30  55 W5        30.29R
LOWELL           N/A     39  38  96 N3        30.29R
COEUR D`ALENE  CLEAR     39  28  65 SW7       30.22R WCI  34
MULLAN PASS    CLOUDY    23  22  96 MISG      30.12R
$$


USA.gov is the U.S. government's official web portal to all federal, state and local government web resources and services.